Location: Blanot
(47.1713°N, 4.2340°E)
Time: 10:37:27
(UTC+00:00)

ATLAS 5 CENTAUR R/B - Pass Details

Date: 14 July 2020
Orbit: 534 x 1124 km, 63.4° (Epoch: 30 July)

Event Time Altitude Azimuth Distance (km) Brightness Sun altitude
Rises 01:33:53 0° 321° (NW) 3,207 5.6 -17.3°
Reaches altitude 10° 01:36:12 10° 328° (NNW) 2,367 4.9 -17.1°
Maximum altitude 01:41:34 49° 43° (NE) 1,133 3.3 -16.7°
Drops below altitude 10° 01:47:48 10° 118° (ESE) 2,752 4.9 -16.2°
Sets 01:50:41 0° 123° (ESE) 3,777 5.5 -15.9°
